Regional Weather Roundup
Issued by NWS

Home | Current Version | Previous Version | Graphics & Text | Print | Product List | Glossary On
Versions: 1 2 3 4 5 6 7 8 9 10 11 12 13 14 15 16 17 18 19 20 21 22 23 24 25 26 27 28 29 30 31 32 33 34 35 36 37 38 39 40 41 42 43 44 45 46 47 48 49 50
000
ASUS43 KFSD 100102
RWRSD

WEATHER ROUNDUP FOR SOUTH DAKOTA
NATIONAL WEATHER SERVICE SIOUX FALLS SD
700 PM CST TUE FEB 09 2016

NOTE: "FAIR" INDICATES FEW OR NO CLOUDS BELOW 12,000 FEET WITH NO
SIGNIFICANT WEATHER AND/OR OBSTRUCTIONS TO VISIBILITY.


SDZ001>005-009-010-012>017-100200-
NORTHWEST AND NORTH CENTRAL SOUTH DAKOTA

CITY           SKY/WX    TMP DP  RH WIND       PRES   REMARKS
BUFFALO          N/A     43  28  55 NW6       30.01F
FAITH            N/A     39  22  50 NE5       30.09S
MOBRIDGE       CLOUDY    35  20  54 E5        30.10F
$$

SDZ012>016-024>037-041>051-057-063-072>074-100200-
SOUTHWEST AND SOUTH CENTRAL SOUTH DAKOTA

CITY           SKY/WX    TMP DP  RH WIND       PRES   REMARKS
RAPID CTY ARPT CLEAR     38  27  64 SE5       30.10S
PIERRE         CLOUDY    32  22  66 SE5       30.13S WCI  27
CUSTER         CLEAR     40  24  53 NW10G18   30.14F
ELLSWORTH AFB  CLEAR     42  30  62 SE6       30.09F
PHILIP         CLOUDY    38  28  67 CALM      30.11F
PINE RIDGE     CLOUDY    36  29  75 CALM      30.13S
WINNER         CLOUDY    34  21  59 SW6       30.14F WCI  29
$$

SDZ004>011-016>023-039-040-100200-
NORTHEAST SOUTH DAKOTA

CITY           SKY/WX    TMP DP  RH WIND       PRES   REMARKS
ABERDEEN       CLOUDY    26  14  60 E7        30.18S WCI  18
WATERTOWN      CLOUDY    20  11  68 NE6       30.17R WCI  12
BROOKINGS      CLOUDY    19  13  77 N5        30.18R WCI  12
SISSETON         N/A     16   9  74 NE9       30.21F WCI   4
$$

SDZ017-020-022-023-036>040-048>070-100200-
SOUTHEAST SOUTH DAKOTA

CITY           SKY/WX    TMP DP  RH WIND       PRES   REMARKS
SIOUX FALLS    CLOUDY    22  13  68 NW3       30.20F
HURON          CLOUDY    26  16  65 SE6       30.19S WCI  19
CHAMBERLAIN    CLOUDY    29  20  68 CALM      30.16S
MITCHELL       CLOUDY    28  18  66 SE3       30.21F
YANKTON        CLOUDY    25  10  54 CALM      30.23S
$$

ABBREVIATIONS USED IN REMARKS
   TC - TEMPERATURE IN CELSIUS
  WCI - WIND CHILL INDEX
   HX - HEAT INDEX
  VSB - VISIBILITY




USA.gov is the U.S. government's official web portal to all federal, state and local government web resources and services.